SBIRS GEO-1 (USA 230)

Last updated on Thu Jul 03 2025 00:02:45 GMT+0000 (Coordinated Universal Time)

1 37481U 11019A 25183.57691705 .00000105 00000+0 00000+0 0 9998 2 37481 3.7738 52.3931 0001904 43.6502 84.2974 1.00272229 51892
UTC large
Height (km)
Speed (km/s)
/
Latitude / Longitude
Inclination (degrees)
Orbital Period (minutes)
Azimuth
Elevation
Range (km)
Doppler Factor

Next 0 passes for location: London (51.5072 / 0.1276)

Sorry there are no passes over London.